Location: Carrières
(48.9495°N, 2.0407°E)
Time: 06:55:15
(UTC+00:00)

Cosmos 540 Rocket - Pass Details

Date: 28 January 2023
Orbit: 740 x 751 km, 74.1° (Epoch: 24 March)

Event Time Altitude Azimuth Distance (km) Brightness Sun altitude
Rises 19:29:09 0° 336° (NNW) 3,211 7.1 -27.3°
Reaches altitude 10° 19:31:31 10° 337° (NNW) 2,281 6.2 -27.7°
Enters shadow 19:35:30 54° 338° (NNW) 907 3.9 -28.4°
